EN

Hourly Weather Bolesty

Today, 1 October, Thursday

Time Temperature Precipitation Wind Pressure Humidity
00:00 +11°C° 0 mm 3 mps 743 mmHg 80%
01:00 +11°C° 0 mm 3 mps 743 mmHg 81%
02:00 +11°C° 0 mm 3 mps 743 mmHg 82%
03:00 +11°C° 0 mm 3 mps 742 mmHg 81%
04:00 +11°C° 0 mm 4 mps 742 mmHg 80%
05:00 +11°C° 0 mm 4 mps 742 mmHg 79%
06:00 +11°C° 0 mm 4 mps 742 mmHg 80%
07:00 +11°C° 0 mm 4 mps 742 mmHg 80%
08:00 +12°C° 0 mm 4 mps 741 mmHg 80%
09:00 +13°C° 0 mm 4 mps 741 mmHg 74%
10:00 +13°C° 0 mm 5 mps 741 mmHg 68%
11:00 +14°C° 0 mm 5 mps 741 mmHg 62%
12:00 +14°C° 0 mm 5 mps 741 mmHg 66%
13:00 +14°C° 0 mm 5 mps 741 mmHg 71%
14:00 +14°C° 0 mm 5 mps 741 mmHg 75%
15:00 +15°C° 0 mm 5 mps 741 mmHg 73%
16:00 +15°C° 0 mm 5 mps 741 mmHg 72%
17:00 +15°C° 0 mm 5 mps 741 mmHg 70%
18:00 +14°C° 0 mm 5 mps 741 mmHg 74%
19:00 +13°C° 0 mm 5 mps 741 mmHg 78%
20:00 +12°C° 0 mm 4 mps 742 mmHg 82%
21:00 +12°C° 0 mm 5 mps 742 mmHg 83%
22:00 +12°C° 0 mm 5 mps 742 mmHg 84%
23:00 +12°C° 0 mm 5 mps 742 mmHg 86%

Tomorrow, 2 October, Friday

Time Temperature Precipitation Wind Pressure Humidity
00:00 +12°C° 0.1 mm 5 mps 742 mmHg 87%
01:00 +13°C° 0.1 mm 5 mps 742 mmHg 88%
02:00 +13°C° 0.1 mm 5 mps 742 mmHg 90%
03:00 +13°C° 0 mm 5 mps 742 mmHg 89%
04:00 +13°C° 0 mm 6 mps 742 mmHg 88%
05:00 +13°C° 0 mm 6 mps 742 mmHg 87%
06:00 +13°C° 0 mm 6 mps 742 mmHg 87%
07:00 +13°C° 0 mm 6 mps 742 mmHg 87%
08:00 +13°C° 0 mm 6 mps 742 mmHg 86%
09:00 +13°C° 0.3 mm 6 mps 742 mmHg 87%
10:00 +13°C° 0.3 mm 6 mps 742 mmHg 87%
11:00 +13°C° 0.3 mm 6 mps 742 mmHg 87%
12:00 +13°C° 0.6 mm 6 mps 743 mmHg 87%
13:00 +13°C° 0.6 mm 6 mps 743 mmHg 86%
14:00 +14°C° 0.6 mm 5 mps 743 mmHg 86%
15:00 +14°C° 0.2 mm 5 mps 743 mmHg 84%
16:00 +14°C° 0.2 mm 5 mps 743 mmHg 82%
17:00 +15°C° 0.2 mm 5 mps 743 mmHg 80%
18:00 +14°C° 0.2 mm 5 mps 743 mmHg 82%
19:00 +14°C° 0.2 mm 6 mps 743 mmHg 84%
20:00 +13°C° 0.2 mm 6 mps 744 mmHg 87%
21:00 +13°C° 0 mm 5 mps 744 mmHg 88%
22:00 +13°C° 0 mm 5 mps 744 mmHg 90%
23:00 +13°C° 0 mm 5 mps 744 mmHg 92%

Day after tomorrow, 3 October, Saturday

Time Temperature Precipitation Wind Pressure Humidity
00:00 +12°C° 0 mm 5 mps 744 mmHg 92%
01:00 +12°C° 0 mm 5 mps 744 mmHg 92%
02:00 +12°C° 0 mm 5 mps 743 mmHg 92%
03:00 +12°C° 0 mm 5 mps 743 mmHg 91%
04:00 +12°C° 0 mm 5 mps 743 mmHg 91%
05:00 +12°C° 0 mm 5 mps 743 mmHg 90%
06:00 +13°C° 0.5 mm 5 mps 743 mmHg 91%
07:00 +13°C° 0.5 mm 6 mps 743 mmHg 92%
08:00 +13°C° 0.5 mm 6 mps 743 mmHg 93%
09:00 +15°C° 0 mm 7 mps 743 mmHg 85%
10:00 +16°C° 0 mm 8 mps 743 mmHg 78%
11:00 +17°C° 0 mm 9 mps 743 mmHg 71%
12:00 +19°C° 0 mm 9 mps 742 mmHg 65%
13:00 +21°C° 0 mm 9 mps 742 mmHg 59%
14:00 +23°C° 0 mm 9 mps 742 mmHg 52%
15:00 +22°C° 0 mm 8 mps 741 mmHg 55%
16:00 +22°C° 0 mm 7 mps 741 mmHg 58%
17:00 +21°C° 0 mm 6 mps 741 mmHg 60%
18:00 +20°C° 0 mm 6 mps 741 mmHg 62%
19:00 +20°C° 0 mm 7 mps 741 mmHg 63%
20:00 +18°C° 0 mm 7 mps 741 mmHg 65%
21:00 +18°C° 0 mm 7 mps 742 mmHg 64%
22:00 +18°C° 0 mm 7 mps 742 mmHg 63%
23:00 +18°C° 0 mm 7 mps 742 mmHg 63%

4 October, Sunday

Time Temperature Precipitation Wind Pressure Humidity
00:00 +18°C° 0 mm 7 mps 742 mmHg 63%
01:00 +18°C° 0 mm 7 mps 742 mmHg 63%
02:00 +17°C° 0 mm 7 mps 742 mmHg 63%
03:00 +17°C° 0 mm 7 mps 742 mmHg 64%
04:00 +16°C° 0 mm 7 mps 741 mmHg 65%
05:00 +16°C° 0 mm 7 mps 741 mmHg 67%
06:00 +16°C° 0 mm 7 mps 741 mmHg 66%
07:00 +16°C° 0 mm 8 mps 741 mmHg 66%
08:00 +16°C° 0 mm 8 mps 741 mmHg 65%
09:00 +17°C° 0 mm 8 mps 741 mmHg 63%
10:00 +20°C° 0 mm 8 mps 742 mmHg 60%
11:00 +21°C° 0 mm 8 mps 742 mmHg 57%
12:00 +22°C° 0 mm 8 mps 742 mmHg 55%
13:00 +23°C° 0 mm 8 mps 742 mmHg 53%
14:00 +24°C° 0 mm 8 mps 742 mmHg 50%
15:00 +24°C° 0 mm 7 mps 742 mmHg 53%
16:00 +23°C° 0 mm 6 mps 742 mmHg 56%
17:00 +23°C° 0 mm 5 mps 743 mmHg 59%
18:00 +21°C° 0 mm 5 mps 743 mmHg 65%
19:00 +20°C° 0 mm 4 mps 743 mmHg 71%
20:00 +19°C° 0 mm 4 mps 744 mmHg 77%
21:00 +18°C° 0 mm 4 mps 744 mmHg 81%
22:00 +17°C° 0 mm 3 mps 744 mmHg 85%
23:00 +17°C° 0 mm 3 mps 745 mmHg 89%

5 October, Monday

Time Temperature Precipitation Wind Pressure Humidity
00:00 +16°C° 0 mm 3 mps 745 mmHg 90%
01:00 +16°C° 0 mm 3 mps 744 mmHg 91%
02:00 +16°C° 0 mm 3 mps 744 mmHg 92%
03:00 +15°C° 0.1 mm 4 mps 744 mmHg 91%
04:00 +15°C° 0.1 mm 4 mps 744 mmHg 90%
05:00 +17°C° 0.1 mm 4 mps 744 mmHg 89%
06:00 +16°C° 0.1 mm 5 mps 744 mmHg 87%
07:00 +16°C° 0.1 mm 5 mps 744 mmHg 84%
08:00 +16°C° 0.1 mm 5 mps 743 mmHg 82%
09:00 +17°C° 0 mm 6 mps 743 mmHg 77%
10:00 +20°C° 0 mm 6 mps 743 mmHg 72%
11:00 +21°C° 0 mm 7 mps 743 mmHg 67%
12:00 +23°C° 0 mm 7 mps 743 mmHg 62%
13:00 +24°C° 0 mm 7 mps 743 mmHg 58%
14:00 +26°C° 0 mm 8 mps 743 mmHg 54%
15:00 +24°C° 0 mm 7 mps 743 mmHg 56%
16:00 +24°C° 0 mm 6 mps 742 mmHg 58%
17:00 +23°C° 0 mm 6 mps 742 mmHg 61%
18:00 +22°C° 0.1 mm 6 mps 742 mmHg 65%
19:00 +21°C° 0.1 mm 7 mps 743 mmHg 69%
20:00 +21°C° 0.1 mm 8 mps 743 mmHg 72%
21:00 +20°C° 0.7 mm 6 mps 743 mmHg 77%
22:00 +20°C° 0.7 mm 5 mps 743 mmHg 82%
23:00 +19°C° 0.7 mm 4 mps 743 mmHg 87%

6 October, Tuesday

Time Temperature Precipitation Wind Pressure Humidity
00:00 +19°C° 0.1 mm 4 mps 743 mmHg 88%
01:00 +18°C° 0.1 mm 4 mps 743 mmHg 89%
02:00 +18°C° 0.1 mm 4 mps 743 mmHg 90%
03:00 +18°C° 0 mm 3 mps 743 mmHg 90%
04:00 +17°C° 0 mm 3 mps 743 mmHg 91%
05:00 +17°C° 0 mm 3 mps 743 mmHg 92%
06:00 +17°C° 0 mm 3 mps 744 mmHg 90%
07:00 +17°C° 0 mm 2 mps 744 mmHg 89%
08:00 +17°C° 0 mm 2 mps 744 mmHg 88%
09:00 +18°C° 0 mm 2 mps 745 mmHg 79%
10:00 +19°C° 0 mm 2 mps 745 mmHg 71%
11:00 +20°C° 0 mm 2 mps 745 mmHg 63%
12:00 +20°C° 0.1 mm 2 mps 745 mmHg 63%
13:00 +20°C° 0.1 mm 2 mps 745 mmHg 64%
14:00 +20°C° 0.1 mm 2 mps 745 mmHg 64%
15:00 +19°C° 0.2 mm 2 mps 745 mmHg 71%
16:00 +18°C° 0.2 mm 2 mps 745 mmHg 78%
17:00 +17°C° 0.2 mm 2 mps 745 mmHg 85%
18:00 +17°C° 0.9 mm 2 mps 745 mmHg 88%
19:00 +17°C° 0.9 mm 2 mps 745 mmHg 91%
20:00 +16°C° 0.9 mm 3 mps 745 mmHg 94%
21:00 +16°C° 1.1 mm 3 mps 745 mmHg 94%
22:00 +16°C° 1.1 mm 3 mps 745 mmHg 95%
23:00 +16°C° 1.1 mm 3 mps 745 mmHg 95%
Show more

We Need Your Consent

Meteoprog and our Service Providers may store and access personal data such as cookies, device identifiers or other similar technologies on your device and process such data to personalise content and ads, as well as provide social media features and to analyse the traffic.

  • Store and/or access information on your device

    Cookies, device identifiers or other information can be stored or accessed on your device for the purposes indicated above.

  • Personalised ads and content, ad and content measurement, audience insights, and products development

    Ads and content can be personalised based on a profile. More data can be added to better personalise ads and content. Ad and content performance can be measured. Insights about the audience who saw the ads and content can be derived. Such data can be used to develop or improve user’s experience, systems and software.

By clicking ‘I Agree’ you will allow the use of indicated cookies, device identifiers, web beacons or other similar technologies. Your settings can be changed in the browser on your device.

For certain purposes, legitimate interests may be relied on, rather than consent. You can read more about this in our Privacy and Cookie Policy.